Find Starlink 31957

NORAD ID: 59926 Int'l Des: 2024-106 Owner: SPXS Country: US Constellation: starlink operational
LEOCIRCULAR

当前视图

正在加载3D地球...

About Starlink 31957

Starlink 31957 (NORAD 59926) is a starlink constellation satellite (v2 mini) launched Jun 1, 2024 by SPXS of US. It operates in LEO, CIRCULAR orbit with a mass of 730.00 kg.

关于 Starlink 31957

正在加载描述...

即将过境

Passes for default location (London). Set your location on the main map for personalized predictions.

高度历史

Loading altitude history...

两行轨道根数

1 59926U 24106E 26169.55807762 .00000219 00000-0 17485-4 0 9999
2 59926 43.0000 122.4997 0001132 264.3206 95.7516 15.27577931116002
Epoch: Jun 18, 2026 • Age: 16 hours

当前状态

高度 483.1 km
速度 7.63 km/s
星下点 -2.41°S, 54.57°W
发射日期 Jun 1, 2024
运行时间 2 years
类型 internet

技术详情

分类 Payload
质量 730.00 kg
干质量 700.00 kg
总质量 730.00 kg
长度 0.30 m
直径 4.10 m
跨度 29.00 m
形状 Box + pan
制造商 SPXS
平台类型 Starlink V2M
阶段状态 In Orbit
所有者/国家 SPXS/US

Most Searched